[[{"header":{"parameterUnit":"m.s-1","parameterCategory":1,"la1":30.2991,"la2":30.254,"lo1":-89.0895,"lo2":-89.0444,"dy":0.0017,"dx":0.0017,"nx":28,"ny":28,"refTime":"2025-03-28T21:00:00:Z","depth":0,"parameterNumber":2,"parameterNumberName":"U-component_of_WINDS"},"data":[0,0,0,0,0,0,0,0,0,0,0,0,0,0,0,0,0,0,0,0,0,0,0,0,0,0,0,0,0,0,0,0,0,0,0,0,0,0,0,0,0,0,0,0,0,0,0,0,0,0,0,0,0,0,0,0,0,0,-7.2003,-7.2005,0,-7.216,-7.2161,-7.2163,-7.2165,-7.2163,-7.2162,-7.216,-7.2316,-7.2322,-7.2328,0,0,0,0,0,0,0,0,0,0,0,0,0,-7.1706,-7.1711,-7.2003,-7.2005,-7.2007,-7.2159,-7.2161,-7.2163,-7.2166,-7.2163,-7.2161,-7.2159,-7.2314,-7.2321,-7.2328,0,0,0,0,0,0,0,0,0,0,0,0,0,-7.1846,-7.1713,-7.2003,-7.2027,-7.203,-7.2159,-7.2161,-7.2164,-7.2166,-7.2163,-7.216,-7.2158,-7.2312,-7.232,-7.2329,-7.2443,0,0,-7.2356,-7.236,0,0,0,0,0,0,0,0,-7.1838,-7.1856,-7.2021,-7.2025,-7.203,-7.214,-7.2114,-7.2257,-7.2167,-7.2114,-7.216,-7.2156,-7.2259,-7.2273,-7.2308,-7.245,-7.2457,-7.2357,-7.2363,-7.2367,-7.2369,0,0,0,0,0,0,0,-7.1828,-7.185,-7.2065,-7.2023,-7.2029,-7.2029,-7.2046,-7.2141,-7.2201,-7.2119,-7.2119,-7.2138,-7.2261,-7.2299,-7.2312,-7.2459,-7.2357,-7.2365,-7.2371,-7.2374,-7.2706,-7.271,0,0,0,0,0,0,-7.1814,-7.1842,-7.206,-7.2069,-7.1925,-7.2037,-7.2056,-7.2107,-7.22,-7.2212,-7.214,-7.2138,-7.2286,-7.2301,-7.2317,-7.2458,-7.2366,-7.2375,-7.238,-7.2703,-7.2707,-7.2711,0,0,0,0,0,0,-7.1807,-7.1833,-7.2053,-7.1956,-7.1984,-7.2045,-7.2103,-7.2112,-7.215,-7.2217,-7.2227,-7.2169,-7.2284,-7.2305,-7.2413,-7.2463,-7.2379,-7.2387,-7.2699,-7.2704,-7.2709,-7.2739,0,0,0,0,0,0,-7.1799,-7.1831,-7.1874,-7.1957,-7.1989,-7.2146,-7.2107,-7.2117,-7.2166,-7.2164,-7.2246,-7.2257,-7.2283,-7.2399,-7.2422,-7.2474,-7.2394,-7.2695,-7.2701,-7.2707,-7.2734,-7.2745,-7.2754,0,0,0,0,0,-7.1788,-7.1875,-7.1877,-7.1903,-7.2045,-7.2149,-7.2168,-7.2197,-7.217,-7.2215,-7.2258,-7.2254,-7.2455,-7.241,-7.2436,-7.2491,-7.2691,-7.2699,-7.2707,-7.273,-7.2743,-7.2754,0,0,0,0,0,0,-7.1794,-7.1886,-7.1889,-7.2005,-7.207,-7.2149,-7.2206,-7.221,-7.2282,-7.2277,-7.2311,-7.2329,-7.2437,-7.2476,-7.2424,-7.2609,-7.257,-7.2583,-7.2579,-7.2592,-7.2602,-7.2589,-7.2402,0,0,0,0,0,-7.1809,-7.1887,-7.1963,-7.2058,-7.2091,-7.2143,-7.219,-7.2208,-7.2275,-7.2302,-7.2353,-7.2418,-7.2497,-7.2547,-7.2622,-7.2741,-7.276,-7.2793,-7.2803,-7.2811,-7.2821,-7.2889,-7.2904,-7.2736,-7.2736,-7.2736,0,0,-7.184,-7.1901,-7.1947,-7.2061,-7.2113,-7.2193,-7.2166,-7.225,-7.2309,-7.2314,-7.242,-7.2461,-7.2536,-7.265,-7.2703,-7.2686,-7.2872,-7.2821,-7.2827,-7.2832,-7.2898,-7.2914,-7.2928,-7.2742,-7.2741,-7.274,0,0,-7.1938,-7.1991,-7.2078,-7.2132,-7.2212,-7.2248,-7.2269,-7.235,-7.2377,-7.2485,-7.2491,-7.2562,-7.2696,-7.275,-7.2794,-7.2919,-7.2918,-7.2943,-7.2994,-7.306,-7.3073,-7.3085,-7.313,-7.3145,-7.2953,-7.2954,-7.2954,0,-7.1965,-7.2086,-7.2121,-7.2207,-7.2257,-7.227,-7.2358,-7.2408,-7.2509,-7.2543,-7.2523,-7.2694,-7.2745,-7.2873,-7.2904,-7.294,-7.2966,-7.2932,-7.3069,-7.3081,-7.3093,-7.3135,-7.3152,-7.2956,-7.2956,-7.2955,-7.2955,0,-7.2117,-7.2201,-7.2261,-7.2361,-7.2419,-7.2505,-7.2553,-7.2608,-7.2623,-7.2661,-7.2771,-7.2834,-7.2924,-7.2957,-7.2971,-7.3088,-7.3075,-7.3062,-7.3023,-7.3111,-7.3151,-7.3168,-7.2959,-7.2959,-7.2958,-7.2957,0,0,-7.2216,-7.2339,-7.236,-7.2407,-7.2499,-7.2565,-7.2653,-7.2743,-7.279,-7.2861,-7.2935,-7.3051,-7.3041,-7.3092,-7.3113,-7.3172,-7.3267,-7.3151,-7.3154,-7.317,-7.3402,-7.341,-7.3428,-7.3269,-7.3272,-7.3275,-7.3395,0,-7.2323,-7.2481,-7.2517,-7.2653,-7.2732,-7.2747,-7.2825,-7.289,-7.2929,-7.3002,-7.3045,-7.3126,-7.3107,-7.3138,-7.3197,-7.3243,-7.3314,-7.3235,-7.3338,-7.3341,-7.3316,-7.3449,-7.3457,-7.3567,-7.3411,-7.3414,-7.3416,0,-7.2466,-7.2544,-7.2688,-7.2774,-7.2808,-7.2877,-7.2964,-7.3034,-7.3109,-7.3134,-7.3194,-7.3211,-7.3304,-7.3265,-7.3394,-7.334,-7.3385,-7.3415,-7.342,-7.3429,-7.3382,-7.346,-7.3603,-7.3619,-7.3441,-7.3439,-7.3438,0,-7.2524,-7.2664,-7.2769,-7.2809,-7.2911,-7.296,-7.3005,-7.3078,-7.3131,-7.3208,-7.3243,-7.3329,-7.3376,-7.3443,-7.3483,-7.345,-7.361,-7.3572,-7.3632,-7.3631,-7.3662,-7.3659,-7.3812,-7.3694,-7.3694,-7.3694,-7.3694,0,-7.2638,-7.2725,-7.2797,-7.2861,-7.296,-7.3003,-7.31,-7.3145,-7.3211,-7.3284,-7.3304,-7.3372,-7.3422,-7.3498,-7.3531,-7.3634,-7.3655,-7.3677,-7.3684,-7.3674,-7.3671,-7.3702,-7.3694,-7.3698,-7.3697,-7.3697,-7.3696,0,-7.2717,-7.2768,-7.2884,-7.2974,-7.2999,-7.3068,-7.3145,-7.3208,-7.3251,-7.3344,-7.3368,-7.3433,-7.3524,-7.3572,-7.3685,-7.3707,-7.3822,-7.3826,-7.3797,-7.3799,-7.3856,-7.385,-7.4033,-7.4059,-7.3925,-7.3926,-7.3927,0,-7.2784,-7.2852,-7.2951,-7.3003,-7.305,-7.3133,-7.3188,-7.3234,-7.3291,-7.3386,-7.3438,-7.3531,-7.3607,-7.3752,-7.3809,-7.3897,-7.3901,-7.396,-7.3914,-7.3903,-7.3901,-7.3896,-7.3903,-7.3966,-7.3968,-7.3969,-7.397,0,-7.2899,-7.2923,-7.3002,-7.3093,-7.3159,-7.3232,-7.3304,-7.3345,-7.3404,-7.3467,-7.3561,-7.3621,-7.3739,-7.3831,-7.3924,-7.397,-7.398,-7.3985,-7.4003,-7.3992,-7.3972,-7.3983,-7.3817,-7.3979,-7.3978,-7.3977,-7.3977,-7.3976,-7.2974,-7.3036,-7.3117,-7.3206,-7.3266,-7.3334,-7.3399,-7.3451,-7.3531,-7.3631,-7.3655,-7.3755,-7.3833,-7.3959,-7.4009,-7.4088,-7.4076,-7.4102,-7.4108,-7.4114,-7.4116,-7.3962,-7.4105,-7.4105,-7.4105,-7.4104,-7.4104,0,-7.3089,-7.3143,-7.3225,-7.3327,-7.3398,-7.3405,-7.3486,-7.3545,-7.3633,-7.3706,-7.3782,-7.3892,-7.3983,-7.405,-7.4142,-7.4193,-7.42,-7.4216,-7.4211,-7.4222,-7.4122,-7.4096,-7.4209,-7.4209,-7.4209,-7.4208,-7.4208,-7.4208,-7.3157,-7.3263,-7.3297,-7.3434,-7.3488,-7.3587,-7.3633,-7.3697,-7.3756,-7.3878,-7.3955,-7.3999,-7.407,-7.4169,-7.4253,-7.427,-7.4303,-7.4318,-7.4336,-7.424,-7.4229,-7.4218,-7.4194,-7.4325,-7.4325,-7.4429,-7.443,-7.4431]},{"header":{"parameterUnit":"m.s-1","parameterCategory":1,"la1":30.2991,"la2":30.254,"lo1":-89.0895,"lo2":-89.0444,"dy":0.0017,"dx":0.0017,"nx":28,"ny":28,"refTime":"2025-03-28T21:00:00:Z","depth":0,"parameterNumber":3,"parameterNumberName":"V-component_of_WINDS"},"data":[0,0,0,0,0,0,0,0,0,0,0,0,0,0,0,0,0,0,0,0,0,0,0,0,0,0,0,0,0,0,0,0,0,0,0,0,0,0,0,0,0,0,0,0,0,0,0,0,0,0,0,0,0,0,0,0,0,0,3.7278,3.7279,0,3.7306,3.7306,3.7306,3.7355,3.7356,3.7357,3.7358,3.738,3.738,3.738,0,0,0,0,0,0,0,0,0,0,0,0,0,3.7265,3.7265,3.7278,3.7279,3.7279,3.7306,3.7306,3.7306,3.7355,3.7356,3.7358,3.7359,3.738,3.738,3.738,0,0,0,0,0,0,0,0,0,0,0,0,0,3.7279,3.7265,3.7278,3.7307,3.731,3.7306,3.7306,3.7307,3.7355,3.7356,3.7358,3.7359,3.738,3.738,3.738,3.7348,0,0,3.7378,3.7378,0,0,0,0,0,0,0,0,3.7279,3.728,3.7302,3.7305,3.7308,3.7329,3.731,3.732,3.7355,3.7338,3.7358,3.736,3.7362,3.7363,3.7365,3.7349,3.735,3.7378,3.7378,3.7378,3.7378,0,0,0,0,0,0,0,3.7278,3.7279,3.7289,3.7303,3.7306,3.7317,3.7321,3.7312,3.7341,3.7339,3.7343,3.7346,3.7363,3.7365,3.7365,3.735,3.7378,3.7378,3.7377,3.7377,3.7314,3.7313,0,0,0,0,0,0,3.7273,3.7278,3.7288,3.729,3.7297,3.7316,3.732,3.7321,3.7341,3.7346,3.7344,3.7348,3.7365,3.7366,3.7366,3.7334,3.7378,3.7377,3.7377,3.7316,3.7314,3.7312,0,0,0,0,0,0,3.7273,3.7274,3.7287,3.7285,3.7288,3.7315,3.7315,3.732,3.7322,3.7345,3.735,3.7341,3.7366,3.7367,3.7354,3.7335,3.7377,3.7377,3.7317,3.7315,3.7313,3.7266,0,0,0,0,0,0,3.7272,3.7273,3.7262,3.7284,3.7288,3.7275,3.7314,3.732,3.7322,3.7327,3.7343,3.7347,3.7367,3.7354,3.7353,3.7335,3.7376,3.7319,3.7316,3.7314,3.7269,3.7262,3.7257,0,0,0,0,0,3.7271,3.7246,3.7261,3.7262,3.7275,3.7273,3.7275,3.73,3.732,3.7309,3.7325,3.7347,3.7337,3.7352,3.7352,3.7333,3.732,3.7317,3.7314,3.7272,3.7264,3.7257,0,0,0,0,0,0,3.7217,3.7249,3.7266,3.7247,3.7258,3.7282,3.7268,3.729,3.7293,3.7297,3.7326,3.733,3.7313,3.7321,3.7338,3.7306,3.7332,3.7329,3.7301,3.7293,3.7287,3.7285,3.7376,0,0,0,0,0,3.7204,3.7202,3.7229,3.7209,3.7214,3.724,3.724,3.726,3.727,3.7274,3.7289,3.7297,3.7297,3.7295,3.7295,3.7271,3.7276,3.7258,3.7252,3.7246,3.7243,3.7233,3.7226,3.7302,3.7302,3.7302,0,0,3.7174,3.7191,3.7188,3.7199,3.7209,3.7206,3.7243,3.7237,3.7235,3.7273,3.7262,3.7273,3.7285,3.7267,3.7259,3.7273,3.7224,3.7242,3.7238,3.7238,3.7229,3.7222,3.7216,3.73,3.73,3.7301,0,0,3.712,3.7132,3.7119,3.7129,3.7146,3.7164,3.7161,3.7182,3.7192,3.7182,3.7212,3.7209,3.7206,3.7214,3.7217,3.717,3.7191,3.7169,3.7136,3.7126,3.712,3.7115,3.71,3.7094,3.7165,3.7165,3.7165,0,3.7081,3.7079,3.7108,3.7102,3.7107,3.7144,3.7131,3.7139,3.7153,3.7155,3.7171,3.7171,3.7181,3.7167,3.7156,3.7156,3.7154,3.7167,3.7119,3.7114,3.711,3.7096,3.7089,3.7163,3.7163,3.7163,3.7163,0,3.7031,3.7029,3.7017,3.7033,3.7036,3.7026,3.7054,3.7053,3.7073,3.7089,3.708,3.7094,3.7099,3.7097,3.7114,3.7085,3.7094,3.7114,3.7142,3.7099,3.7087,3.7081,3.7159,3.716,3.7161,3.7161,0,0,3.6942,3.6978,3.6973,3.6983,3.7004,3.7003,3.6995,3.7003,3.7003,3.7011,3.7006,3.7005,3.7025,3.7029,3.7047,3.7039,3.7003,3.706,3.7061,3.705,3.6975,3.6961,3.6954,3.7017,3.7016,3.7016,3.6975,0,3.6894,3.6885,3.6913,3.6896,3.6895,3.6932,3.6925,3.6938,3.6953,3.6955,3.6971,3.6971,3.6996,3.6999,3.6992,3.7009,3.6988,3.7012,3.7013,3.7012,3.701,3.6947,3.6931,3.6892,3.697,3.6969,3.6968,0,3.6835,3.6845,3.683,3.6856,3.6856,3.685,3.6861,3.6862,3.6877,3.6889,3.6896,3.6919,3.6913,3.6939,3.6932,3.6948,3.695,3.6958,3.6957,3.6959,3.6988,3.6948,3.688,3.6874,3.696,3.6961,3.6961,0,3.6775,3.6784,3.6776,3.6783,3.6812,3.6808,3.6819,3.6836,3.684,3.6849,3.6852,3.6859,3.6863,3.6867,3.6892,3.6909,3.6882,3.691,3.6893,3.6892,3.6885,3.6886,3.6818,3.6885,3.6885,3.6885,3.6885,0,3.6718,3.6708,3.675,3.6745,3.6735,3.6767,3.6756,3.6771,3.6786,3.6785,3.6815,3.6813,3.6845,3.6847,3.6865,3.6858,3.6858,3.6868,3.6874,3.6866,3.6865,3.6868,3.6872,3.6883,3.6884,3.6884,3.6884,0,3.6649,3.6677,3.6672,3.6701,3.6708,3.67,3.6725,3.6721,3.674,3.6738,3.674,3.6768,3.6772,3.6797,3.6805,3.6818,3.6804,3.6813,3.6799,3.6803,3.6785,3.6787,3.6717,3.6711,3.678,3.6779,3.6779,0,3.6612,3.6605,3.6635,3.6638,3.6649,3.6652,3.6658,3.6689,3.6693,3.6712,3.6707,3.6713,3.6721,3.6725,3.6745,3.6752,3.6764,3.6739,3.6765,3.6759,3.6765,3.6766,3.6766,3.6733,3.6732,3.6732,3.6731,0,3.6544,3.6559,3.6566,3.6579,3.6585,3.6596,3.6608,3.6608,3.6643,3.6646,3.6652,3.6658,3.6668,3.6675,3.6686,3.6697,3.672,3.6723,3.672,3.6713,3.6706,3.6711,3.6786,3.6724,3.6725,3.6726,3.6726,3.6726,3.649,3.6488,3.6509,3.6517,3.6531,3.6542,3.6542,3.6562,3.6568,3.6581,3.6599,3.6602,3.662,3.6638,3.6648,3.6651,3.6663,3.6658,3.6657,3.6655,3.6652,3.6705,3.6652,3.6652,3.6653,3.6653,3.6653,0,3.6426,3.6442,3.6449,3.6468,3.6474,3.6498,3.6514,3.6517,3.6521,3.6536,3.6544,3.6551,3.6558,3.6581,3.6591,3.6589,3.66,3.659,3.6591,3.6594,3.6639,3.6642,3.6582,3.6582,3.6582,3.6582,3.6582,3.6582,3.6393,3.639,3.6408,3.6412,3.6429,3.6435,3.6442,3.6453,3.6466,3.6474,3.6481,3.6497,3.6515,3.6527,3.6535,3.6541,3.6544,3.6531,3.6541,3.6583,3.659,3.6597,3.66,3.6531,3.6531,3.6496,3.6496,3.6496]}]]